Time,Snow Cover Fraction,Confidence
2024-04-30T06:00:37,0,99.63
2024-04-30T06:30:37,0,100.0
2024-04-30T07:00:37,0,100.0
2024-04-30T07:30:37,0,99.99
2024-04-30T08:00:37,0,98.09
2024-04-30T08:30:36,0,99.9
2024-04-30T09:00:37,0,98.27
2024-04-30T09:30:36,0,99.91
2024-04-30T10:00:36,0,99.55
2024-04-30T10:30:36,0,98.61
2024-04-30T11:00:36,0,97.36
2024-04-30T11:30:36,0,99.22
2024-04-30T12:00:36,0,99.01
2024-04-30T12:30:36,0,99.12
2024-04-30T13:00:37,0,91.06
2024-04-30T13:30:37,0,97.21
2024-04-30T14:00:36,0,98.98
2024-04-30T14:30:37,0,86.54
2024-04-30T15:00:37,0,99.84
2024-04-30T15:30:37,0,99.87
2024-04-30T16:00:36,0,99.36
2024-04-30T16:30:37,0,99.39
2024-04-30T17:00:36,0,98.9
2024-04-30T17:30:36,0,96.96
2024-04-30T18:00:36,0,100.0
2024-04-30T18:30:36,0,99.51
2024-05-01T05:30:36,0,71.79
2024-05-01T06:00:37,0,99.99
2024-05-01T06:30:37,0,99.75
2024-05-01T07:00:36,0,99.71
2024-05-01T07:30:37,0,99.85
2024-05-01T08:00:37,0,99.92
2024-05-01T08:30:37,0,99.88
2024-05-01T09:00:36,0,99.86
2024-05-01T09:30:36,0,99.96
2024-05-01T10:00:37,0,98.29
2024-05-01T10:30:36,0,99.02
2024-05-01T11:00:36,0,97.57
2024-05-01T11:30:37,0,99.81
2024-05-01T12:00:37,0,99.87
2024-05-01T12:30:36,0,99.93
2024-05-01T13:00:37,0,99.75
2024-05-01T13:30:37,0,99.9
2024-05-01T14:00:37,0,99.95
2024-05-01T14:30:36,0,99.84
2024-05-01T15:00:36,0,99.87
2024-05-01T15:30:36,0,99.63
2024-05-01T16:00:36,0,99.81
2024-05-01T16:30:36,0,99.65
2024-05-01T17:00:36,0,99.88
2024-05-01T17:30:36,0,98.21
2024-05-01T18:00:37,0,90.27
2024-05-01T18:30:36,100,63.16
2024-05-02T05:30:37,0,96.44
2024-05-02T06:00:37,0,100.0
2024-05-02T06:30:37,0,100.0
2024-05-02T07:00:36,0,100.0
2024-05-02T07:30:36,0,100.0
2024-05-02T08:00:36,0,100.0
2024-05-02T08:30:37,0,100.0
2024-05-02T09:00:36,0,100.0
2024-05-02T09:30:37,0,100.0
2024-05-02T10:00:36,0,100.0
2024-05-02T10:30:36,0,100.0
2024-05-02T11:00:36,0,100.0
2024-05-02T11:30:36,0,100.0
2024-05-02T12:00:36,0,100.0
2024-05-02T12:30:37,0,100.0
2024-05-02T13:00:36,0,100.0
2024-05-02T13:30:37,0,100.0
2024-05-02T14:00:36,0,100.0
2024-05-02T14:30:37,0,100.0
2024-05-02T15:00:37,0,100.0
2024-05-02T15:30:37,0,100.0
2024-05-02T16:00:36,0,99.99
2024-05-02T16:30:36,0,99.99
2024-05-02T17:00:37,0,99.98
2024-05-02T17:30:36,0,99.96
2024-05-02T18:00:36,0,99.93
2024-05-02T18:30:36,0,53.68
2024-05-03T05:30:37,0,100.0
2024-05-03T06:00:36,0,100.0
2024-05-03T06:30:37,0,100.0
2024-05-03T07:00:36,0,100.0
2024-05-03T07:30:37,0,100.0
2024-05-03T08:00:36,0,100.0
2024-05-03T08:30:37,0,99.99
2024-05-03T09:00:37,0,99.97
2024-05-03T09:30:37,0,99.91
2024-05-03T10:00:37,0,99.9
2024-05-03T10:30:37,0,99.24
2024-05-03T11:00:37,0,99.04
2024-05-03T11:30:37,0,99.78
2024-05-03T12:00:37,0,98.34
2024-05-03T12:30:36,0,99.88
2024-05-03T13:00:36,0,99.93
2024-05-03T13:30:36,0,98.21
2024-05-03T14:00:36,0,99.33
2024-05-03T14:30:37,0,95.29
2024-05-03T15:00:37,0,99.75
2024-05-03T15:30:37,0,99.86
2024-05-03T16:00:36,0,66.41
2024-05-03T16:30:36,0,98.35
2024-05-03T17:00:37,0,98.83
2024-05-03T18:00:36,0,99.99
2024-05-03T18:30:36,0,100.0
2024-05-04T05:30:36,0,99.42
2024-05-04T06:00:37,0,100.0
2024-05-04T06:30:36,0,100.0
2024-05-04T07:00:36,0,100.0
2024-05-04T07:30:37,0,100.0
2024-05-04T08:00:38,0,100.0
2024-05-04T08:30:37,0,100.0
2024-05-04T09:00:36,0,100.0
2024-05-04T09:30:36,0,100.0
2024-05-04T10:00:37,0,100.0
2024-05-04T10:30:37,0,100.0
2024-05-04T11:00:36,0,100.0
2024-05-04T11:30:36,0,99.99
2024-05-04T12:00:36,0,99.97
2024-05-04T12:30:37,0,99.7
2024-05-04T13:00:37,0,78.29
2024-05-04T13:30:37,0,99.94
2024-05-04T14:00:37,0,81.48
2024-05-04T14:30:37,0,97.62
2024-05-04T15:00:37,0,99.3
2024-05-04T15:30:37,0,97.54
2024-05-04T16:00:36,0,99.58
2024-05-04T16:30:36,50,97.08
2024-05-04T17:00:37,0,99.88
2024-05-04T17:30:36,0,99.97
2024-05-04T18:00:37,50,98.73
2024-05-04T18:30:36,100,55.39
2024-05-05T05:30:37,0,99.86
2024-05-05T06:00:37,0,100.0
2024-05-05T06:30:37,0,100.0
2024-05-05T07:00:38,0,100.0
2024-05-05T07:30:37,0,100.0
2024-05-05T09:00:36,0,99.94
2024-05-05T09:30:36,0,99.74
2024-05-05T10:00:37,0,99.79
2024-05-05T10:30:37,0,99.16
2024-05-05T11:00:37,0,98.46
2024-05-05T11:30:37,0,98.14
2024-05-05T12:00:37,0,99.86
2024-05-05T12:30:37,0,99.89
2024-05-05T13:00:37,0,97.35
2024-05-05T13:30:37,0,98.57
2024-05-05T14:00:37,50,87.77
2024-05-05T14:30:36,0,99.94
2024-05-05T15:00:36,0,99.85
2024-05-05T15:30:37,0,99.67
2024-05-05T16:00:37,0,99.88
2024-05-05T16:30:38,0,99.95
2024-05-05T17:00:37,0,99.99
2024-05-05T17:30:37,0,99.99
2024-05-05T18:00:37,0,100.0
2024-05-05T18:30:38,0,100.0
2024-05-06T05:30:36,0,100.0
2024-05-06T06:00:36,0,100.0
2024-05-06T06:30:36,0,100.0
2024-05-06T07:00:37,0,99.99
2024-05-06T07:30:37,0,99.99
2024-05-06T08:00:37,0,99.91
2024-05-06T08:30:37,0,99.8
2024-05-06T09:00:37,0,99.47
2024-05-06T09:30:37,0,99.61
2024-05-06T10:00:37,0,98.0
2024-05-06T10:30:37,0,99.83
2024-05-06T11:00:37,0,98.14
2024-05-06T11:30:36,0,99.79
2024-05-06T12:00:36,0,98.79
2024-05-06T12:30:37,0,86.98
2024-05-06T13:00:36,0,98.13
2024-05-06T13:30:36,0,91.86
2024-05-06T14:00:37,0,98.39
2024-05-06T14:30:37,0,99.63
2024-05-06T15:00:37,0,99.8
2024-05-06T15:30:37,0,99.84
2024-05-06T16:00:37,0,99.12
2024-05-06T16:30:36,0,98.8
2024-05-06T17:00:37,0,99.9
2024-05-06T17:30:37,0,99.97
2024-05-06T18:00:37,0,99.98
2024-05-06T18:30:37,0,99.89
2024-05-07T05:30:37,0,99.98
2024-05-07T06:00:37,0,100.0
2024-05-07T06:30:37,0,100.0
2024-05-07T07:00:37,0,100.0
2024-05-07T07:30:37,0,100.0
2024-05-07T08:00:36,0,100.0
2024-05-07T08:30:37,0,100.0
2024-05-07T09:00:37,0,99.98
2024-05-07T09:30:36,0,99.63
2024-05-07T10:00:37,0,95.37
2024-05-07T10:30:37,0,98.87
2024-05-07T11:00:37,0,93.93
2024-05-07T11:30:37,0,91.73
2024-05-07T12:00:36,0,99.27
2024-05-07T12:30:36,0,99.95
2024-05-07T13:00:36,0,97.95
2024-05-07T13:30:37,0,89.67
2024-05-07T14:00:36,0,96.35
2024-05-07T14:30:37,0,99.54
2024-05-07T15:00:36,0,87.94
2024-05-07T15:30:37,0,94.84
2024-05-07T16:00:37,0,99.29
2024-05-07T16:30:36,0,97.89
2024-05-07T17:00:37,0,94.16
2024-05-07T17:30:37,0,94.47
2024-05-07T18:00:37,0,63.63
2024-05-07T18:30:37,0,98.25
2024-05-08T05:30:36,0,99.98
2024-05-08T06:00:38,0,100.0
2024-05-08T06:30:37,0,100.0
2024-05-08T07:00:37,0,100.0
2024-05-08T07:30:36,0,100.0
2024-05-08T08:00:37,0,99.78
2024-05-08T08:30:37,0,99.78
2024-05-08T09:00:36,0,99.86
2024-05-08T09:30:37,0,98.37
2024-05-08T10:00:37,0,99.51
2024-05-08T10:30:37,0,99.9
2024-05-08T11:00:37,0,99.95
2024-05-08T11:30:36,0,99.21
2024-05-08T12:00:37,0,99.29
2024-05-08T12:30:37,0,99.14
2024-05-08T13:00:37,0,98.75
2024-05-08T13:30:37,50,74.13
2024-05-08T14:00:37,50,70.89
2024-05-08T14:30:37,50,81.05
2024-05-08T15:00:36,50,84.23
2024-05-08T15:30:37,50,85.07
2024-05-08T16:00:36,50,95.03
2024-05-08T16:30:37,50,95.36
2024-05-08T17:00:37,50,90.23
2024-05-08T17:30:37,50,85.98
2024-05-08T18:00:37,50,88.37
2024-05-08T18:30:37,50,85.73
2024-05-09T05:30:36,100,67.96
2024-05-09T06:00:37,0,91.6
2024-05-09T06:30:37,50,98.27
2024-05-09T07:00:37,50,98.22
2024-05-09T07:30:37,50,98.35
2024-05-09T08:00:36,50,97.99
2024-05-09T08:30:36,50,95.29
2024-05-09T09:00:36,50,75.35
2024-05-09T09:30:37,50,97.26
2024-05-09T10:00:37,50,96.95
2024-05-09T10:30:37,50,96.09
2024-05-09T11:00:37,50,95.99
2024-05-09T11:30:36,50,95.53
2024-05-09T12:00:37,50,97.73
2024-05-09T12:30:37,50,96.63
2024-05-09T13:00:37,50,97.12
2024-05-09T13:30:37,0,96.56
2024-05-09T14:00:37,0,88.05
2024-05-09T14:30:36,50,98.43
2024-05-09T15:00:36,50,99.25
2024-05-09T15:30:36,50,98.22
2024-05-09T16:00:38,50,89.18
2024-05-09T16:30:37,50,96.85
2024-05-09T17:00:37,50,95.25
2024-05-09T17:30:37,50,98.43
2024-05-09T18:00:37,0,92.91
2024-05-09T18:30:37,50,79.89
2024-05-10T05:30:36,0,98.13
2024-05-10T06:00:36,0,99.66
2024-05-10T06:30:37,0,92.76
2024-05-10T07:00:36,50,60.32
2024-05-10T07:30:36,50,93.1
2024-05-10T08:00:37,50,94.72
2024-05-10T08:30:37,50,94.36
2024-05-10T09:00:36,50,94.04
2024-05-10T09:30:37,50,95.68
2024-05-10T10:00:37,50,95.33
2024-05-10T10:30:37,50,93.74
2024-05-10T11:00:37,50,83.22
2024-05-10T11:30:37,0,55.79
2024-05-10T12:00:37,50,61.05
2024-05-10T12:30:37,0,69.82
2024-05-10T13:00:37,50,93.76
2024-05-10T13:30:37,0,91.6
2024-05-10T14:00:37,50,91.3
2024-05-10T14:30:37,0,94.06
2024-05-10T15:00:37,0,55.94
2024-05-10T15:30:36,50,69.82
2024-05-10T16:00:36,50,89.95
2024-05-10T16:30:36,50,91.07
2024-05-10T17:00:37,50,86.35
2024-05-10T17:30:37,0,62.2
2024-05-10T18:00:37,50,78.16
2024-05-10T18:30:37,50,70.41
2024-05-11T05:30:37,0,99.02
2024-05-11T06:00:37,0,98.72
2024-05-11T06:30:37,0,91.67
2024-05-11T07:00:37,50,83.73
2024-05-11T07:30:37,50,92.79
2024-05-11T08:00:37,50,92.93
2024-05-11T08:30:36,50,89.73
2024-05-11T09:00:37,50,90.21
2024-05-11T09:30:37,50,88.34
2024-05-11T10:00:37,50,75.06
2024-05-11T10:30:37,50,79.35
2024-05-11T11:00:37,50,73.13
2024-05-11T11:30:37,50,66.41
2024-05-11T12:00:37,50,61.5
2024-05-11T12:30:37,50,58.04
2024-05-11T13:00:37,50,67.05
2024-05-11T13:30:36,50,79.6
2024-05-11T14:00:37,50,77.45
2024-05-11T14:30:36,50,68.86
2024-05-11T15:00:37,50,71.77
2024-05-11T15:30:37,50,59.86
2024-05-11T16:00:38,50,61.0
2024-05-11T16:30:37,50,67.08
2024-05-11T17:00:37,50,61.18
2024-05-11T17:30:37,50,51.3
2024-05-11T18:00:37,50,51.99
2024-05-11T18:30:37,0,72.63
2024-05-12T05:30:37,0,62.66
2024-05-12T06:00:37,50,74.01
2024-05-12T06:30:37,50,84.3
2024-05-12T07:00:37,50,89.4
2024-05-12T07:30:37,50,88.92
2024-05-12T08:00:37,50,89.7
2024-05-12T08:30:37,50,93.81
2024-05-12T09:00:36,50,91.17
2024-05-12T09:30:38,50,93.46
2024-05-12T10:00:38,50,91.55
2024-05-12T10:30:37,50,90.61
2024-05-12T11:00:37,50,88.45
2024-05-12T11:30:37,50,77.89
2024-05-12T12:00:37,50,61.95
2024-05-12T12:30:37,100,83.21
2024-05-12T13:00:37,0,94.73
2024-05-12T13:30:38,50,77.55
2024-05-12T14:00:37,50,91.54
2024-05-12T14:30:37,50,99.55
2024-05-12T15:00:36,0,99.23
2024-05-12T15:30:37,50,91.76
2024-05-12T16:00:37,0,83.34
2024-05-12T16:30:37,0,61.99
2024-05-12T17:00:37,50,66.24
2024-05-12T17:30:37,50,67.23
2024-05-12T18:00:38,0,63.65
2024-05-12T18:30:37,0,98.09
2024-05-13T05:30:37,50,87.26
2024-05-13T06:00:36,0,98.32
2024-05-13T06:30:36,0,87.11
2024-05-13T07:00:37,0,81.84
2024-05-13T07:30:38,0,80.27
2024-05-13T08:00:37,0,74.25
2024-05-13T08:30:37,0,73.62
2024-05-13T09:00:37,0,74.51
2024-05-13T09:30:37,0,84.72
2024-05-13T10:00:37,0,87.01
2024-05-13T10:30:37,0,96.58
2024-05-13T11:00:37,0,90.96
2024-05-13T11:30:37,0,92.08
2024-05-13T12:00:37,0,99.9
2024-05-13T12:30:37,0,98.86
2024-05-13T13:00:37,0,77.94
2024-05-13T13:30:38,0,96.98
2024-05-13T14:00:38,0,95.27
2024-05-13T14:30:37,0,99.36
2024-05-13T15:00:37,0,99.11
2024-05-13T15:30:37,0,98.07
2024-05-13T16:00:38,0,98.46
2024-05-13T16:30:37,0,95.02
2024-05-13T17:00:37,0,93.92
2024-05-13T17:30:37,0,89.03
2024-05-13T18:00:37,0,91.66
2024-05-13T18:30:37,0,98.88
2024-05-14T05:30:37,0,95.21
2024-05-14T06:00:37,0,92.4
2024-05-14T06:30:37,0,81.33
2024-05-14T07:00:37,0,74.36
2024-05-14T07:30:37,0,80.84
2024-05-14T08:00:38,0,85.46
2024-05-14T08:30:37,0,84.33
2024-05-14T09:00:37,0,89.98
2024-05-14T09:30:37,0,97.39
2024-05-14T10:00:37,0,96.12
2024-05-14T10:30:37,0,98.75
2024-05-14T11:00:37,0,99.33
2024-05-14T11:30:37,0,99.47
2024-05-14T12:00:37,0,99.87
2024-05-14T12:30:37,0,99.88
2024-05-14T13:00:37,0,99.91
2024-05-14T13:30:37,0,99.86
2024-05-14T14:00:37,0,99.85
2024-05-14T14:30:37,0,99.78
2024-05-14T15:00:37,0,99.59
2024-05-14T15:30:37,0,98.83
2024-05-14T16:00:37,0,98.32
2024-05-14T16:30:37,0,98.08
2024-05-14T17:00:37,0,96.67
2024-05-14T17:30:37,0,96.86
2024-05-14T18:00:37,0,98.36
2024-05-14T18:30:37,0,99.78